Weather in Gainesville

United States     29°39′06″N   82°19′30″W
temp.,
°C
wind,
m/s
gust,
m/s
humid.,
%
clouds,
%
prec.,
mm/h
press.,
hPa
HPBL,
m
18 may, tue
tue1823:00+21e397291 0.0 1022732
02:00+19e298286 0.0 1022282
05:00+18ene21089100 0.0 1021294
08:00+21e3107210 0.0 1023599
11:00+28e4639100 0.0 10232135
14:00+31e562982 0.0 10212673
17:00+29e663435 0.0 10202622
20:00+24e585645 0.0 10221119
19 may, wed
wed1923:00+21e31074100 0.0 1023697
02:00+18ene278615 0.0 1022215
05:00+18ene2889100 0.0 1021230
08:00+21ene2870100 0.0 1023270
11:00+27e4750100 0.1 10231837
14:00+29e463671 0.1 10212577
17:00+28e6746100 0.0 10222081
20:00+23e51067100 0.0 10231085
20 may, thu
thu2023:00+21e41070100 0.0 1024971
02:00+20e3106994 0.0 1023666
05:00+18ene210766 0.0 1023336
08:00+21ene310655 0.0 1025759
11:00+27e58394 0.0 10251906
14:00+29e68330 0.0 10242130
17:00+28e68350 0.0 10232043
20:00+23e58540 0.0 10241290
21 may, fri
fri2123:00+20e310715 0.0 1025659
02:00+17ne27831 0.0 1025183
05:00+17ne278623 0.0 1025187
08:00+21ene3974100 0.0 1026455
11:00+28ene594439 0.0 10262133
14:00+31ene683586 0.0 10252657
17:00+28ene574598 0.0 10252078
20:00+24ene486460 0.0 10261059
22 may, sat
sat2223:00+20ene298199 0.0 1026377
02:00+18ene2890100 0.0 1025211
05:00+17ene2795100 0.0 1024168
08:00+20ne257299 0.0 1025218
11:00+27ene363979 0.0 10251936
14:00+31ene452884 0.0 10232449
17:00+31ene452924 0.0 10212400
20:00+25ene38484 0.0 1021488